OK9CPU-9 Weather Reports


time (UTC)temp
C
wind
direction
speed
KPH
gust
KPH
rain 1hr
cm
rain 24hr
cm
rain mn
cm
humidity
%
barometer
mb
20260504003451 11 0.0 0.0 0.00 0.00 0.00 28 1015.6
20260504001809 11 0.0 0.0 0.00 0.00 0.00 28 1015.5
20260504000134 11 0.0 0.0 0.00 0.00 0.00 28 1015.6
20260503234459 11 0.0 0.0 0.00 0.00 0.00 28 1015.6
20260503232824 12 0.0 0.0 0.00 0.00 0.00 28 1015.7
20260503231149 12 0.0 0.0 0.00 0.00 0.00 28 1015.7
20260503225514 12 0.0 0.0 0.00 0.00 0.00 28 1015.9
20260503223839 12 0.0 0.0 0.00 0.00 0.00 28 1016.0
20260503222211 12 0.0 0.0 0.00 0.00 0.00 28 1015.9
20260503220529 13 0.0 0.0 0.00 0.00 0.00 28 1016.0
20260503214901 13 0.0 0.0 0.00 0.00 0.00 28 1016.0
20260503213219 13 0.0 0.0 0.00 0.00 0.00 29 1015.9
20260503211543 13 0.0 0.0 0.00 0.00 0.00 29 1015.8
20260503205908 14 0.0 0.0 0.00 0.00 0.00 29 1016.0
20260503204241 14 0.0 0.0 0.00 0.00 0.00 29 1016.2
20260503202558 15 0.0 0.0 0.00 0.00 0.00 29 1016.2
20260503200923 15 0.0 0.0 0.00 0.00 0.00 29 1016.2
20260503195248 15 0.0 0.0 0.00 0.00 0.00 29 1016.2
20260503191946 16 0.0 0.0 0.00 0.00 0.00 29 1016.2
20260503190311 17 0.0 0.0 0.00 0.00 0.00 29 1016.2
20260503184628 18 0.0 0.0 0.00 0.00 0.00 29 1016.1
20260503182953 18 0.0 0.0 0.00 0.00 0.00 29 1015.9
20260503181318 19 0.0 0.0 0.00 0.00 0.00 28 1015.8
20260503175643 20 0.0 0.0 0.00 0.00 0.00 28 1015.7
20260503174008 21 0.0 0.0 0.00 0.00 0.00 28 1015.7
20260503172333 21 0.0 0.0 0.00 0.00 0.00 27 1015.6
20260503170707 22 0.0 0.0 0.00 0.00 0.00 27 1015.6
20260503072639 31 0.0 0.0 0.00 0.00 0.00 16 1019.7
20260503071004 30 0.0 0.0 0.00 0.00 0.00 16 1019.7
20260503054709 26 0.0 0.0 0.00 0.00 0.00 14 1019.2
20260503053026 24 0.0 0.0 0.00 0.00 0.00 15 1019.3
20260503051359 21 0.0 0.0 0.00 0.00 0.00 16 1019.3
20260503045716 18 0.0 0.0 0.00 0.00 0.00 17 1019.3
20260503044041 15 0.0 0.0 0.00 0.00 0.00 18 1019.5
20260503042406 11 0.0 0.0 0.00 0.00 0.00 22 1019.4
20260503040731 7 0.0 0.0 0.00 0.00 0.00 25 1019.4
20260503035056 6 0.0 0.0 0.00 0.00 0.00 25 1019.4
20260503033421 6 0.0 0.0 0.00 0.00 0.00 26 1019.4
20260503031746 6 0.0 0.0 0.00 0.00 0.00 26 1019.3
20260503030111 6 0.0 0.0 0.00 0.00 0.00 26 1019.3
20260503024443 6 0.0 0.0 0.00 0.00 0.00 27 1019.3
20260503022801 6 0.0 0.0 0.00 0.00 0.00 27 1019.5
20260503021134 6 0.0 0.0 0.00 0.00 0.00 27 1019.4
20260503015451 6 0.0 0.0 0.00 0.00 0.00 27 1019.4
20260503013823 6 0.0 0.0 0.00 0.00 0.00 27 1019.4
20260503012148 6 0.0 0.0 0.00 0.00 0.00 27 1019.3
20260503010506 7 0.0 0.0 0.00 0.00 0.00 27 1019.3